EW4120 Weather Reports


time (UTC)temp
C
wind
direction
speed
KPH
gust
KPH
rain 1hr
cm
rain 24hr
cm
rain mn
cm
humidity
%
barometer
mb
20260906020537 21 0.0 0.0 0.00 0.15 0.15 97 1013.2
20260906015537 21 0.0 0.0 0.00 0.15 0.15 96 1013.1
20260906014537 21 0.0 0.0 0.00 0.15 0.15 96 1013.1
20260906013537 21 0.0 0.0 0.00 0.15 0.15 96 1013.1
20260906012517 21 0.0 0.0 0.00 0.15 0.15 96 1012.7
20260906010517 22 0.0 0.0 0.00 0.15 0.15 95 1012.8
20260906005517 22 0.0 0.0 0.00 0.15 0.15 94 1012.7
20260906004517 22 0.0 0.0 0.00 0.15 0.15 94 1012.8
20260906003517 22 0.0 0.0 0.00 0.15 0.15 93 1012.6
20260906002517 22 0.0 0.0 0.00 0.15 0.15 93 1012.6
20260906001537 23 0.0 0.0 0.00 0.15 0.15 91 1012.5
20260906000557 23 0.0 0.0 0.03 0.15 0.15 91 1012.4
20260905235517 23 0.0 0.0 0.03 0.15 0.15 90 1012.4
20260905234517 24 0.0 0.0 0.03 0.15 0.15 89 1012.1
20260905233517 25 0.0 0.0 0.03 0.15 0.15 87 1012.1
20260905232537 25 0.0 0.0 0.03 0.15 0.15 84 1012.1
20260905231517 26 0.0 0.0 0.03 0.15 0.15 82 1012.0
20260905230537 26 0.0 0.0 0.00 0.13 0.13 80 1011.9
20260905225517 27 0.0 0.0 0.00 0.13 0.13 81 1012.1
20260905224517 27 0.0 0.0 0.00 0.13 0.13 81 1012.2
20260905223517 27 0.0 0.0 0.00 0.13 0.13 83 1012.2
20260905222537 26 0.0 1.6 0.00 0.13 0.13 84 1012.2
20260905221516 26 0.0 3.2 0.00 0.13 0.13 83 1012.4
20260905220537 26 0.0 0.0 0.00 0.13 0.13 86 1012.4
20260905215516 26 0.0 1.6 0.00 0.13 0.13 85 1012.6
20260905214522 26 0.0 0.0 0.00 0.13 0.13 89 1012.7
20260905213516 25 0.0 0.0 0.00 0.13 0.13 91 1012.7
20260905212657 25 0.0 1.6 0.00 0.13 0.13 90 1012.7
20260905211536 26 0.0 0.0 0.00 0.13 0.13 90 1012.9
20260905210516 26 0.0 0.0 0.00 0.13 0.13 92 1013.0
20260905205516 25 0.0 1.6 0.00 0.13 0.13 94 1013.1
20260905204617 24 0.0 3.2 0.00 0.13 0.13 97 1012.8
20260905203537 23 0.0 1.6 0.03 0.13 0.13 97 1012.4
20260905202516 23 0.0 1.6 0.03 0.13 0.13 98 1012.0
20260905201517 23 0.0 0.0 0.03 0.13 0.13 97 1012.1
20260905200516 23 0.0 0.0 0.03 0.13 0.13 97 1012.3
20260905195516 23 0.0 3.2 0.03 0.13 0.13 97 1012.8
20260905194536 23 0.0 0.0 0.03 0.13 0.13 97 1012.8
20260905193536 22 0.0 1.6 0.00 0.13 0.10 96 1012.9
20260905192536 23 0.0 3.2 0.00 0.13 0.10 96 1012.7
20260905191516 22 0.0 0.0 0.00 0.13 0.10 95 1012.7
20260905190516 22 0.0 1.6 0.00 0.13 0.10 94 1012.5
20260905185536 23 0.0 1.6 0.00 0.13 0.10 92 1012.5
20260905184516 24 0.0 4.8 0.00 0.13 0.10 85 1012.3
20260905183516 28 45 9.7 22.5 0.00 0.13 0.10 71 1013.4
20260905182517 32 45 1.6 9.7 0.00 0.13 0.10 63 1012.7
20260905181516 33 0 1.6 6.4 0.00 0.13 0.10 63 1013.0
20260905180516 33 68 1.6 8.0 0.03 0.13 0.10 61 1013.2
20260905175616 33 45 3.2 9.7 0.03 0.13 0.10 61 1013.4
20260905174536 34 45 3.2 8.0 0.03 0.13 0.10 63 1013.3
20260905173516 33 23 4.8 14.5 0.03 0.13 0.10 62 1013.4
20260905172516 33 23 1.6 6.4 0.03 0.13 0.10 63 1013.9
20260905171556 33 45 1.6 4.8 0.03 0.13 0.10 64 1014.2
20260905170616 33 45 1.6 6.4 0.00 0.10 0.08 64 1014.4
20260905165536 33 45 1.6 8.0 0.00 0.10 0.08 67 1014.5
20260905164516 32 23 1.6 6.4 0.00 0.10 0.08 67 1014.6
20260905163516 32 23 1.6 12.9 0.00 0.10 0.08 69 1014.6
20260905162536 31 45 1.6 8.0 0.00 0.10 0.08 75 1014.6
20260905161516 31 45 1.6 6.4 0.00 0.10 0.08 73 1014.7
20260905160536 31 0.0 6.4 0.03 0.10 0.08 77 1014.8
20260905155616 30 248 1.6 6.4 0.03 0.10 0.08 77 1014.9
20260905154516 30 0.0 3.2 0.03 0.10 0.08 78 1014.9
20260905153536 30 23 1.6 4.8 0.03 0.10 0.08 78 1015.0
20260905152636 29 0.0 4.8 0.03 0.10 0.08 83 1014.9
20260905151516 28 0.0 1.6 0.03 0.10 0.08 86 1015.0
20260905150636 28 0.0 3.2 0.00 0.08 0.05 85 1015.1
20260905145536 28 0.0 3.2 0.00 0.08 0.05 87 1015.2
20260905144656 27 0.0 4.8 0.00 0.08 0.05 90 1015.2
20260905143516 27 0.0 1.6 0.00 0.08 0.05 93 1015.1
20260905142516 26 0.0 3.2 0.00 0.08 0.05 97 1015.0
20260905141556 25 0.0 4.8 0.00 0.08 0.05 97 1014.9
20260905140516 25 0.0 3.2 0.00 0.08 0.05 99 1014.9
20260905135516 24 0.0 3.2 0.00 0.08 0.05 100 1014.9
20260905134516 25 0.0 3.2 0.00 0.08 0.05 100 1014.9
20260905133556 24 0.0 1.6 0.00 0.08 0.05 100 1014.8
20260905132556 23 0.0 0.0 0.00 0.08 0.05 100 1014.7
20260905131556 23 0.0 0.0 0.00 0.08 0.05 100 1014.9
20260905130516 23 0.0 0.0 0.03 0.08 0.05 100 1015.0
20260905125516 23 0.0 0.0 0.03 0.08 0.05 100 1015.1
20260905123556 22 0.0 0.0 0.03 0.10 0.05 100 1015.1
20260905122515 22 0.0 0.0 0.03 0.10 0.05 100 1015.1
20260905121637 21 0.0 0.0 0.03 0.10 0.05 100 1015.2
20260905120515 21 0.0 3.2 0.00 0.08 0.03 99 1015.0
20260905115515 21 0.0 0.0 0.00 0.08 0.03 99 1015.1
20260905114515 21 0.0 0.0 0.00 0.08 0.03 99 1014.8
20260905113515 20 0.0 0.0 0.00 0.08 0.03 99 1014.6
20260905112536 20 0.0 0.0 0.00 0.08 0.03 99 1014.6
20260905111536 20 0.0 0.0 0.00 0.08 0.03 99 1014.4
20260905110515 20 0.0 0.0 0.00 0.08 0.03 99 1014.4
20260905104616 20 0.0 0.0 0.00 0.08 0.03 99 1014.4
20260905103515 20 0.0 0.0 0.00 0.08 0.03 99 1014.4
20260905102636 21 0.0 0.0 0.00 0.08 0.03 99 1014.4
20260905101515 21 0.0 0.0 0.00 0.08 0.03 99 1014.3
20260905100515 21 0.0 0.0 0.00 0.08 0.03 99 1014.3
20260905095535 21 0.0 0.0 0.00 0.08 0.03 98 1014.3
20260905094555 21 0.0 0.0 0.00 0.08 0.03 99 1014.3
20260905093515 21 0.0 0.0 0.00 0.08 0.03 99 1014.2
20260905092555 21 0.0 0.0 0.03 0.08 0.03 98 1014.3
20260905091535 21 0.0 0.0 0.03 0.08 0.03 98 1014.4
20260905090515 21 0.0 0.0 0.03 0.08 0.03 98 1014.4
20260905085555 21 0.0 0.0 0.03 0.08 0.03 98 1014.5
20260905084535 21 0.0 0.0 0.03 0.08 0.03 98 1014.5
20260905083515 21 0.0 0.0 0.03 0.08 0.03 98 1014.7
20260905082636 22 0.0 0.0 0.00 0.05 0.00 98 1014.8
20260905081515 22 0.0 0.0 0.00 0.05 0.00 98 1014.9
20260905080517 22 0.0 1.6 0.00 0.05 0.00 98 1014.9
20260905075517 22 0.0 1.6 0.00 0.05 0.00 98 1015.0
20260905074537 22 0.0 0.0 0.00 0.05 0.00 97 1015.1
20260905073617 22 0.0 1.6 0.00 0.05 0.00 97 1014.9
20260905072557 22 0.0 0.0 0.00 0.05 0.00 96 1014.6
20260905071537 23 0.0 0.0 0.00 0.05 0.00 95 1014.7
20260905070517 23 45 1.6 6.4 0.00 0.05 0.00 95 1015.3
20260905065517 23 0.0 3.2 0.00 0.05 0.00 95 1016.1
20260905064517 23 0.0 0.0 0.00 0.05 0.00 95 1016.0
20260905063517 22 0.0 0.0 0.00 0.05 0.00 95 1016.0
20260905062557 22 0.0 1.6 0.00 0.08 0.00 96 1016.5
20260905061537 22 0.0 0.0 0.00 0.08 0.00 95 1016.0
20260905060517 22 0.0 0.0 0.00 0.08 0.00 95 1016.5
20260905055637 22 0.0 0.0 0.00 0.08 0.00 95 1016.7
20260905054537 22 0.0 0.0 0.00 0.08 0.00 95 1016.7
20260905053537 22 0.0 0.0 0.00 0.08 0.00 94 1016.9
20260905052557 22 0.0 0.0 0.00 0.08 0.00 94 1017.0
20260905051657 22 0.0 0.0 0.00 0.08 0.00 94 1016.9
20260905050537 22 0.0 0.0 0.00 0.08 0.00 94 1017.0
20260905045517 22 0.0 0.0 0.00 0.08 0.00 94 1017.1
20260905044517 22 0.0 1.6 0.00 0.08 0.00 94 1017.3
20260905043557 22 0.0 0.0 0.00 0.08 0.00 94 1017.3
20260905042557 22 0.0 0.0 0.00 0.08 0.00 93 1017.3
20260905041537 22 0.0 1.6 0.00 0.08 0.00 94 1017.2
20260905040517 22 0.0 1.6 0.00 0.08 0.00 94 1017.3
20260905035515 22 0.0 0.0 0.00 0.08 0.08 94 1016.9
20260905034515 22 0.0 0.0 0.00 0.08 0.08 94 1017.0
20260905033515 22 0.0 0.0 0.00 0.08 0.08 94 1016.7
20260905032517 22 0.0 0.0 0.00 0.08 0.08 93 1016.5
20260905031517 22 0.0 0.0 0.00 0.08 0.08 93 1016.4
20260905030557 22 0.0 0.0 0.00 0.08 0.08 93 1016.4
20260905025517 22 0.0 0.0 0.00 0.08 0.08 92 1016.1
20260905024517 22 0.0 0.0 0.00 0.08 0.08 92 1016.3
20260905023535 22 0.0 0.0 0.00 0.08 0.08 92 1016.3
20260905022617 22 0.0 0.0 0.00 0.08 0.08 91 1016.3
20260905021517 23 0.0 0.0 0.00 0.08 0.08 91 1016.3